Back to catalog

SJ-31

AliveMilitaryHEO
NORAD 69570·PAYLOAD·🇨🇳 China

Launched Jun 16, 2026 from Xichang Satellite Launch Center

Loading…

Next Passes (next 24 hours)

TLE

FreshSource: Space-Track

Epoch: Sep 14, 2026, 10:51 UTC

1 69570U 26136A   26257.45242589 -.00000182  00000-0  00000+0 0  9997
2 69570  63.4843 346.8857 6936102 172.0265 211.4381  1.92224027  1806

Track SJ-31 in real time with AllMySat

Download on the App Store